Flag for China Weather past 2 weeks in Guangzhou, Guangdong, China

Now
61 °F

Overcast.


Feels Like: 61 °F
Forecast: 58 / 68 °F
Wind: 1 mph from North

Location: Canton Airport

Current Time: Mar 2, 2015 at 1:53:23 PM

Latest Report: Mar 2, 2015 at 1:30 PM


Visibility: N/A

Pressure: 30.01 "Hg

Humidity: 68%

Dew point: 50 °F

Location of GuangzhouLocation

Historic Weather in Guangzhou — Graph

°F

Guangzhou temperature yesterday

Maximum temperature yesterday: 64 °F (at 1:30 PM)
Minimum temperature yesterday: 55 °F (at 4:00 AM)
Average temperature yesterday: 59 °F

Past Weeks' High & Low Weather Summary

 TemperatureHumidityPressure
High82 °F (Feb 26, 3:00 PM)100% (Feb 16, 1:30 AM)30.24 "Hg (Feb 16, 1:30 AM)
Low55 °F (Mar 1, 4:00 AM)52% (Mar 1, 1:30 PM)29.83 "Hg (Feb 24, 3:30 PM)
Average69 °F81%30.00 "Hg
* Reported Feb 15 12:00 Noon — Mar 2 12:30 PM, Guangzhou, Weather by CustomWeather, © 2015

Note: Actual official high and low records may vary slightly from our data, if they occured in-between our weather recording intervals... More about our weather records

Advertising

Guangzhou weather history for previous 24 hours

 ConditionsComfort  
Time TempWeatherWind HumidityBarometerVisibility
12:30 PM
Mon, Mar 2
61 °FMore clouds than sun.1 mph63%30.04 "HgN/A
12:00 PM59 °FMore clouds than sun.1 mph63%30.07 "HgN/A
11:30 AM57 °FMore clouds than sun.1 mph67%30.07 "HgN/A
11:00 AM57 °FMore clouds than sun.3 mph67%30.09 "HgN/A
10:30 AM57 °FLight rain. Overcast.3 mph67%30.09 "HgN/A
10:00 AM57 °FOvercast.1 mph67%30.12 "HgN/A
9:30 AM57 °FOvercast.6 mph63%30.12 "HgN/A
9:00 AM55 °FOvercast.3 mph67%30.12 "HgN/A
8:30 AM55 °FOvercast.3 mph67%30.12 "HgN/A
8:00 AM55 °FOvercast.3 mph67%30.09 "HgN/A
7:30 AM55 °FOvercast.3 mph67%30.09 "HgN/A
7:00 AM55 °FOvercast.3 mph67%30.09 "HgN/A
6:30 AM55 °FOvercast.3 mph67%30.07 "HgN/A
6:00 AM55 °FOvercast.3 mph67%30.07 "HgN/A
5:30 AM55 °FOvercast.3 mph67%30.07 "HgN/A
4:30 AM55 °FOvercast.3 mph63%30.07 "HgN/A
4:00 AM55 °FOvercast.6 mph63%30.07 "HgN/A
3:30 AM55 °FOvercast.3 mph63%30.07 "HgN/A
3:00 AM55 °FOvercast.3 mph63%30.09 "HgN/A
2:30 AM55 °FOvercast.6 mph63%30.09 "HgN/A
2:00 AM55 °FOvercast.6 mph63%30.12 "HgN/A
1:30 AM55 °FOvercast.8 mph63%30.12 "HgN/A
1:00 AM57 °FOvercast.8 mph59%30.15 "HgN/A
12:30 AM57 °FOvercast.6 mph59%30.15 "HgN/A
12:00 AM57 °FOvercast.8 mph63%30.18 "HgN/A
11:30 PM
Sun, Mar 1
57 °FOvercast.6 mph63%30.18 "HgN/A
11:00 PM57 °FOvercast.10 mph63%30.18 "HgN/A
10:30 PM57 °FPassing clouds.13 mph63%30.18 "HgN/A
10:00 PM59 °FPassing clouds.8 mph59%30.18 "HgN/A
9:30 PM59 °FPassing clouds.8 mph63%30.18 "HgN/A
9:00 PM59 °FPassing clouds.8 mph63%30.15 "HgN/A
8:30 PM59 °FPassing clouds.13 mph63%30.15 "HgN/A
8:00 PM59 °FPassing clouds.10 mph63%30.12 "HgN/A
7:30 PM59 °FPassing clouds.10 mph59%30.12 "HgN/A
7:00 PM59 °FPassing clouds.10 mph63%30.12 "HgN/A
6:30 PM61 °FPassing clouds.10 mph59%30.12 "HgN/A
6:00 PM61 °FPartly sunny.6 mph59%30.12 "HgN/A
5:30 PM61 °FPartly sunny.8 mph59%30.12 "HgN/A
5:00 PM61 °FPartly sunny.10 mph59%30.12 "HgN/A
4:30 PM61 °FPartly sunny.13 mph59%30.09 "HgN/A
4:00 PM63 °FPartly sunny.13 mph56%30.12 "HgN/A
3:30 PM63 °FPartly sunny.13 mph56%30.12 "HgN/A
3:00 PM63 °FPartly sunny.15 mph56%30.12 "HgN/A
2:30 PM64 °FPartly sunny.13 mph52%30.12 "HgN/A
2:00 PM64 °FPartly sunny.8 mph52%30.12 "HgN/A
1:30 PM64 °FPartly sunny.10 mph52%30.15 "HgN/A
1:00 PM63 °FPartly sunny.10 mph56%30.18 "HgN/A
Weather by CustomWeather, © 2015

See weather overviewHow to use our weather pages